Terminal Aerodrome Forecast
Issued by NWS Wakefield, VA

Home | Current Version | Previous Version | Text Only | Print | Product List | Glossary On
Versions: 1 2 3 4 5 6 7 8 9 10 11 12 13 14 15 16 17 18 19
000
FTUS41 KAKQ 311700
TAFSBY
TAF
KSBY 311732Z 3118/0118 02007KT P6SM BKN045 BKN250
     FM312200 03007KT P6SM SCT040
     FM010400 01004KT P6SM BKN035
     FM011000 36006KT P6SM BKN025
     FM011500 36010KT P6SM -RA BKN012=

USA.gov is the U.S. government's official web portal to all federal, state and local government web resources and services.